Tracking 29892 objects as of 21-Nov-2024
HD Live streaming from Space Station
objects crossing your sky now

SL-16 DEB

Track SL-16 DEB now!
10-day predictions


NORAD ID: 23302
Int'l Code: 1992-093JH
Perigee: 779.1 km
Apogee: 944.6 km
Inclination: 71.1 °
Period: 102.0 minutes
Semi major axis: 7232 km
RCS: 0.0099 m2 (small)
Launch date: December 25, 1992
Source: Commonwealth of Independent States (former USSR) (CIS)
Launch site: TYURATAM MISSILE AND SPACE COMPLEX (TTMTR)

Note: This is SATELLITE DEBRIS
Your satellite tracking list
Your tracking list is empty




NASA's NSSDC Master Catalog

Two Line Element Set (TLE):
1 23302U 92093JH  24325.27083574  .00002512  00000-0  13287-2 0  9998
2 23302  71.1287 260.8170 0114356 105.5597  44.2315 14.11366455573150
Source of the keplerian elements: AFSPC